Location: Oshawa
(43.9000°N, 78.8670°W)
Time: 21:11:10
(UTC-05:00)

Iridium 54 - Visible Passes

Search period start: 18 January 2017 00:00
Search period end: 28 January 2017 00:00
Orbit: 776 x 779 km, 86.4° (Epoch: 18 January)

Date Brightness Start Highest point End Pass type
(mag) Time Alt. Az. Time Alt. Az. Time Alt. Az.
18 Jan 8.5 06:00:19 10° NE 06:02:23 12° ENE 06:04:27 10° E visible
19 Jan 6.4 07:05:09 10° N 07:10:17 53° E 07:15:22 10° SSE visible
20 Jan 7.5 06:32:00 10° NNE 06:36:35 30° ENE 06:41:08 10° SE visible
20 Jan 7.5 19:29:49 10° SSE 19:30:45 15° SSE 19:30:45 15° SSE visible
21 Jan 8.3 05:59:19 10° NNE 06:02:45 17° ENE 06:06:10 10° ESE visible
21 Jan 6.9 18:56:56 10° SSE 18:59:03 22° SE 18:59:03 22° SE visible
21 Jan 7.7 20:37:42 10° SW 20:39:39 20° WSW 20:39:39 20° WSW visible
22 Jan 5.8 07:05:10 10° N 07:10:25 77° E 07:15:38 10° S visible
22 Jan 6.8 18:24:43 10° ESE 18:27:49 19° E 18:27:49 19° E visible
22 Jan 6.1 20:03:29 10° SSW 20:15:53 - N 20:08:28 53° W visible
23 Jan 6.9 06:31:50 10° N 06:36:48 42° E 06:41:44 10° SSE visible
23 Jan 7.3 17:54:23 10° E 17:55:11 10° ENE 17:55:58 10° ENE visible
23 Jan 5.4 19:29:47 10° S 19:34:59 85° E 19:40:14 10° N visible
23 Jan 8.4 21:14:23 10° W 21:16:26 12° WNW 21:18:31 10° NW visible
24 Jan 7.9 05:58:49 10° NNE 06:03:03 24° ENE 06:07:15 10° SE visible
24 Jan 5.7 18:56:35 10° SSE 19:01:32 47° E 19:06:32 10° NNE visible
24 Jan 7.8 20:38:34 10° SW 20:42:32 22° WNW 20:46:31 10° NNW visible
25 Jan 8.4 05:26:30 10° NE 05:29:09 14° ENE 05:31:48 10° ESE visible
25 Jan 5.5 07:05:17 10° N 07:10:31 76° W 07:15:43 10° S visible
25 Jan 6.4 18:23:55 10° SE 18:28:13 27° E 18:32:32 10° NNE visible
25 Jan 6.9 20:03:56 10° SSW 20:08:45 38° W 20:13:36 10° NNW visible
26 Jan 6.2 06:31:47 10° N 06:36:58 61° E 06:42:07 10° SSE visible
26 Jan 7.0 17:52:07 10° ESE 17:55:01 15° ENE 17:57:56 10° NE visible
26 Jan 5.8 19:29:56 10° SSW 19:35:06 68° W 19:40:19 10° N visible
27 Jan 7.3 05:58:34 10° NNE 06:03:18 34° E 06:08:01 10° SE visible
27 Jan 5.4 18:56:25 10° S 19:01:34 68° E 19:06:46 10° N visible
27 Jan 8.3 20:39:47 10° WSW 20:42:51 15° WNW 20:45:54 10° NW visible
